Estación de Curicó

Ultimos registro cada 15 minutos 39
Estación Fecha / Hora Temperatura Humedad Lluvia Velocidad Dirección Radiación Presion
39 Curicó 07-05-2026 09:30 8,9 93 0 1 219 121,9 1000,6
38 Curicó 07-05-2026 09:15 8,7 94,2 0 0,7 212 119,4 1000,4
37 Curicó 07-05-2026 09:00 8,3 94,9 0 0,3 204 70,6 1000,6
36 Curicó 07-05-2026 08:45 8,2 95,3 0 0,7 185 39,4 1000,4
35 Curicó 07-05-2026 08:30 8 95,7 0 0,7 180 45,6 1000,4
34 Curicó 07-05-2026 08:15 7,7 95,6 0 0,3 131 30,6 1000,2
33 Curicó 07-05-2026 08:00 7,3 95,3 0 0,3 131 23,1 1000
32 Curicó 07-05-2026 07:45 7,4 95,2 0 1 208 8,1 999,6
31 Curicó 07-05-2026 07:30 7,6 94,8 0 0,7 215 3,1 999,5
30 Curicó 07-05-2026 07:15 7,9 94,6 0 0,3 205 0,6 999,5
29 Curicó 07-05-2026 07:00 7,8 94,4 0 0,3 211 0,6 999,5
28 Curicó 07-05-2026 06:45 8,1 94,3 0 0,7 195 0,6 999,4
27 Curicó 07-05-2026 06:30 7,8 93,8 0 0,7 161 0,6 999,5
26 Curicó 07-05-2026 06:15 8,1 93,3 0 0,7 174 0,6 999,3
25 Curicó 07-05-2026 06:00 8,3 92,9 0 1 201 0,6 998,8
24 Curicó 07-05-2026 05:45 8,6 92,5 0 0,7 195 0,6 998,6
23 Curicó 07-05-2026 05:30 9,1 92,1 0 1 194 0,6 998,7
22 Curicó 07-05-2026 05:15 9,3 91,8 0 1,3 178 0,6 998,7
21 Curicó 07-05-2026 05:00 9,4 91,7 0 1,3 183 0,6 998,6
20 Curicó 07-05-2026 04:45 9,5 91,7 0 1,3 206 0,6 998,2
19 Curicó 07-05-2026 04:30 9,5 91,9 0 1 215 0,6 998
18 Curicó 07-05-2026 04:15 9,2 91,8 0 0,7 209 0,6 997,7
17 Curicó 07-05-2026 04:00 9,5 91,2 0 1 213 0,6 997,8
16 Curicó 07-05-2026 03:45 9,7 91 0 1 198 0,6 997,9
15 Curicó 07-05-2026 03:30 9,7 91,2 0 0,7 199 0,6 997,9
14 Curicó 07-05-2026 03:15 9,9 90,7 0 1 212 0,6 997,6
13 Curicó 07-05-2026 03:00 10 91,1 0 0,3 206 0,6 997,8
12 Curicó 07-05-2026 02:45 9,9 91,3 0 0,7 237 0,6 997,9
11 Curicó 07-05-2026 02:30 10 91,3 0 0,7 244 0,6 997,8
10 Curicó 07-05-2026 02:15 10 91,5 0 0,7 248 0,6 997,6
9 Curicó 07-05-2026 02:00 10,1 91,8 0 0,3 239 0,6 997,4
8 Curicó 07-05-2026 01:45 10,1 92 0 0,3 229 0,6 997,3
7 Curicó 07-05-2026 01:30 10,1 92,1 0 0,3 220 0,6 997,1
6 Curicó 07-05-2026 01:15 10,1 92,1 0 0,3 208 0,6 997
5 Curicó 07-05-2026 01:00 10,2 92,2 0 0,7 236 0,6 996,7
4 Curicó 07-05-2026 00:45 10,5 93,2 0 0,7 225 0,6 997
3 Curicó 07-05-2026 00:30 10,4 94,2 0 0,3 219 0,6 997,1
2 Curicó 07-05-2026 00:15 10,1 95,1 0 0 223 0,6 996,9
1 Curicó 07-05-2026 00:00 10,1 95,2 0 0 246 0,6 996,8